Погода в Широком

Украина / Днепропетровская область     47°40′58″N   33°16′12″E
темп.,
°C
ветер,
м/с
пор.,
м/с
влажн.,
%
обл.,
%
осадки,
мм/ч
давл.,
гПа
погр.,
м
11 апреля, вс
вс1100:00+7ссв33450 0.0 102636
03:00+6ссв34490 0.0 102666
06:00+5ссв47550 0.0 1027120
09:00+9ссв58480 0.0 1027470
12:00+13св783690 0.0 10261490
15:00+15св78330 0.0 10251678
18:00+15ссв6838100 0.0 10241401
21:00+11ссв4946100 0.0 1024219
12 апреля, пн
пн1200:00+9с4952100 0.0 1024218
03:00+8ссв5115693 0.0 1023276
06:00+8ссв51057100 0.0 1021403
09:00+8ссв4765100 0.0 1021498
12:00+10св346898 0.0 1021578
15:00+11св3375100 0.0 1020460
18:00+10с1282100 0.0 1020107
21:00+10з118580 0.1 102116
13 апреля, вт
вт1300:00+8зюз229086 0.0 102012
03:00+7зюз229154 0.0 102012
06:00+8ю1188100 0.0 102113
09:00+10ю2282100 0.0 1020187
12:00+13ю3462100 0.0 1020802
15:00+14ююв3357100 0.1 10201179
18:00+13ю3467100 0.0 1019586
21:00+12ююв2273100 0.0 102047
14 апреля, ср
ср1400:00+11ю2277100 0.0 101953
03:00+10ю2279100 0.0 101857
06:00+9зюз2378100 0.0 101872
09:00+10ю2372100 0.0 1018320
12:00+13ююз3464100 0.0 1018803
15:00+16ююв344990 0.0 10161783
18:00+14юв4557100 0.0 1015317
21:00+12юв3566100 0.1 1015166
15 апреля, чт
чт1500:00+9ююв3678100 0.0 1015156
03:00+7вюв3581100 0.0 1014116
06:00+7вюв3785100 0.0 1013171
09:00+10юв476991 0.0 1013487
12:00+15юв665499 0.0 10111661
15:00+13ююв4463100 0.1 10101040
18:00+10ю2491100 2.2 1010248
21:00+9ююв3495100 4.4 1010276